Modesto, CA

10:09 AM PDT on June 28, 2017 (GMT -0700)
Modesto City-County-Sham

Weather History for KMOD - June, 2013

Change the Weather History Date:

Saturday, June 29, 2013

  Actual Average Record
Temperature  
Mean Temperature 91 °F -  
Max Temperature 107 °F 93 °F 109 °F (2009)
Min Temperature 74 °F 62 °F 45 °F (1949)
Degree Days  
Heating Degree Days 0 0  
Month to date heating degree days 0 0  
Since 1 June heating degree days 0 0  
Since 1 July heating degree days 2148 2168  
Cooling Degree Days 26 13  
Month to date cooling degree days 332 285  
Year to date cooling degree days 578 484  
Since 1 June cooling degree days 332 285  
Growing Degree Days 40 (Base 50)    
Moisture  
Dew Point 54 °F    
Average Humidity 35    
Maximum Humidity 53    
Minimum Humidity 16    
Precipitation  
Precipitation 0.00 in 0.00 in 0.19 in (1982)
Month to date precipitation 0.07 0.12  
Year to date precipitation 3.21 8.75  
Since 1 July precipitation 9.09  
Snow  
Snow 0.00 in - - ()
Month to date snowfall 0.0  
Since 1 June snowfall 0.0  
Since 1 July snowfall 0.0  
Snow Depth -    
Sea Level Pressure  
Sea Level Pressure 29.82 in    
Wind  
Wind Speed 7 mph (NNW)    
Max Wind Speed 15 mph    
Max Gust Speed 32 mph    
Visibility 10 miles    
Events      
T = Trace of Precipitation, MM = Missing Value Source: NWS Daily Summary

Daily Weather History Graph

Daily Weather History Graph

Search for Another Location

Airport or City:

Trip Planner

Search our weather history database for the weather conditions in past years. The results will help you decide how hot, cold, wet, or windy it might be!

Date:

Astronomy

Jun. 29, 2013 Rise Set
Actual Time 5:45 AM PDT 8:29 PM PDT
Civil Twilight 5:14 AM PDT 9:00 PM PDT
Nautical Twilight 4:35 AM PDT 9:39 PM PDT
Astronomical Twilight 3:51 AM PDT 10:23 PM PDT
Moon 12:09 AM PDT (6/29) 12:53 PM PDT (6/29)
Length of Visible Light 15h 46m
Length of Day
14h 44m
Waning Gibbous, 54% of the Moon is Illuminated
Jun 29
Waning Gibbous
Jun 29
Last Quarter
Jul 8
New
Jul 15
First Quarter
Jul 22
Full

Hourly Weather History & Observations

Time (PDT) Temp. Heat Index Dew Point Humidity Pressure Visibility Wind Dir Wind Speed Gust Speed Precip Events Conditions
12:53 AM 82.0 °F 81.3 °F 54.0 °F 38% 29.86 in 10.0 mi NNE 4.6 mph - N/A   Clear
1:53 AM 82.0 °F - 52.0 °F 35% 29.86 in 10.0 mi North 4.6 mph - N/A   Clear
2:53 AM 78.1 °F - 53.1 °F 42% 29.85 in 10.0 mi Calm Calm - N/A   Clear
3:53 AM 78.1 °F - 55.0 °F 45% 29.85 in 10.0 mi North 3.5 mph - N/A   Clear
4:53 AM 75.0 °F - 55.9 °F 51% 29.85 in 10.0 mi North 3.5 mph - N/A   Clear
5:53 AM 73.9 °F - 55.0 °F 52% 29.86 in 10.0 mi NNE 4.6 mph 32.2 mph N/A   Clear
6:53 AM 77.0 °F - 55.0 °F 47% 29.86 in 10.0 mi North 3.5 mph - N/A   Clear
7:32 AM 80.6 °F 80.3 °F 53.6 °F 39% 29.86 in 10.0 mi North 5.8 mph 28.8 mph N/A   Squalls
7:53 AM 82.0 °F 81.3 °F 54.0 °F 38% 29.87 in 10.0 mi NNW 5.8 mph - N/A   Clear
8:53 AM 87.1 °F 84.9 °F 53.1 °F 31% 29.87 in 10.0 mi North 6.9 mph - N/A   Clear
9:53 AM 91.9 °F 89.5 °F 53.1 °F 27% 29.87 in 10.0 mi NW 12.7 mph - N/A   Clear
10:53 AM 93.0 °F 91.1 °F 55.0 °F 28% 29.87 in 10.0 mi NNW 10.4 mph - N/A   Clear
11:53 AM 97.0 °F 96.1 °F 57.9 °F 27% 29.85 in 10.0 mi NW 12.7 mph 19.6 mph N/A   Clear
12:53 PM 100.0 °F 98.8 °F 55.9 °F 23% 29.84 in 10.0 mi NW 10.4 mph - N/A   Clear
1:53 PM 102.9 °F 103.0 °F 59.0 °F 23% 29.82 in 10.0 mi NW 15.0 mph 21.9 mph N/A   Clear
2:53 PM 104.0 °F 104.6 °F 59.0 °F 23% 29.80 in 10.0 mi NW 15.0 mph 21.9 mph N/A   Clear
3:53 PM 106.0 °F 103.9 °F 53.1 °F 17% 29.77 in 10.0 mi NW 11.5 mph - N/A   Clear
4:53 PM 107.1 °F - 52.0 °F 16% 29.75 in 10.0 mi NNW 12.7 mph - N/A   Clear
5:53 PM 105.1 °F 103.3 °F 53.1 °F 18% 29.74 in 10.0 mi NW 12.7 mph - N/A   Clear
6:53 PM 104.0 °F 102.9 °F 55.9 °F 20% 29.73 in 10.0 mi NNW 11.5 mph - N/A   Clear
7:53 PM 99.0 °F 98.1 °F 57.0 °F 25% 29.74 in 10.0 mi WNW 11.5 mph - N/A   Clear
8:53 PM 93.9 °F 92.0 °F 55.0 °F 27% 29.74 in 10.0 mi NW 11.5 mph - N/A   Clear
9:53 PM 91.9 °F - 50.0 °F 24% 29.75 in 10.0 mi WNW 10.4 mph - N/A   Clear
10:53 PM 91.9 °F - 48.9 °F 23% 29.76 in 10.0 mi WNW 13.8 mph - N/A   Clear
11:53 PM 88.0 °F - 46.9 °F 24% 29.76 in 10.0 mi NW 6.9 mph - N/A   Clear